Location: ActonStarParty
(42.4766°N, 71.4538°W)
Time: 07:03:34
(UTC-05:00)

ISS - Visible Passes

Search period start: 23 November 2014 00:00
Search period end: 03 December 2014 00:00
Orbit: 408 x 417 km, 51.6° (Epoch: 23 November)

Date Brightness Start Highest point End Pass type
(mag) Time Alt. Az. Time Alt. Az. Time Alt. Az.
23 Nov -1.8 05:19:38 21° NNW 05:20:59 28° NNE 05:23:54 10° E visible
24 Nov -1.0 04:32:00 20° NE 04:32:00 20° NE 04:33:45 10° ENE visible
24 Nov -3.3 06:04:49 10° NW 06:08:05 90° SSW 06:11:23 10° SE visible
25 Nov -2.8 05:17:10 34° NNW 05:18:17 54° NNE 05:21:31 10° ESE visible
26 Nov -1.2 04:29:31 26° ENE 04:29:31 26° ENE 04:31:26 10° E visible
26 Nov -2.3 06:02:20 12° WNW 06:05:00 34° SW 06:08:01 10° SSE visible
27 Nov -3.2 05:14:42 52° W 05:15:12 62° SW 05:18:27 10° SE visible
28 Nov -1.0 04:27:05 25° ESE 04:27:05 25° ESE 04:28:34 10° ESE visible
28 Nov -1.1 05:59:54 10° W 06:01:31 14° SW 06:03:13 10° SSW visible
29 Nov -1.7 05:12:18 22° SSW 05:12:18 22° SSW 05:14:25 10° S visible
30 Nov -0.2 04:24:44 11° SSE 04:24:44 11° SSE 04:24:56 10° SSE visible
